CZ-4 DEB, 27492

Orbit data source: Space-Track

CZ-4 DEB, 27492 is space debris in SSO originally from a launch on Thu, 14 Oct 1999 UTC launched from the Taiyaun Space Center, China (TSC). Debris objects in space refer to the collection of defunct objects orbiting the Earth. Examples of debris include non-operational satellites, rocket bodies, and fragments generated from explosions, collisions, or faulty payload assembly.

Loading next visibility...
Identifier
27492, 1999-057MM
Orbit
SSO
Country
Flag of CNCN / PRC
Related business
Manufacturer
Unknown
Mission
Spacecraft
Bus & Motor
Unknown
Mass
Unknown
Launch date (UTC)
1999-10-14 (26 years ago)
Launch vehicle
Unknown
Launch site
Taiyaun Space Center, China (TSC)
Object type
Payload
Rocket body
Debris
Shape & HBR
Unknown shape, 0.1 m
Radar Cross Section
Small (<0.1 m²)

Expand to show TLE details & history
Last TLE update: 1 day ago

TLE from 1 day ago
0 CZ-4 DEB
1 27492U 99057MM  25348.59914724  .00004623  00000-0  93348-3 0  9992
2 27492  98.4148  38.6472 0077740 234.0404 125.3568 14.60007884296478
Epoch: 2025-12-14T14:22Z
TLE epoch observation values (Epoch: 2025-12-14T14:22:46.321Z)
Latitude
-0.00001°
Longitude
99.44444°
Altitude
728.226 km
Speed
7.474 km/s
True Right ascension
02h 34m 35s
True Declination
0° 00' 00"
Sunlit
Object was in full shadow at epoch
Visualization orbit readout
Latitude
Unknown
Longitude
Unknown
Altitude
Unknown
Speed
Unknown
Apparent Right ascension
Unknown
Apparent Declination
Unknown
Sunlit
N/A
Visualization observer readout
Local Sidereal Time
17:45:23
Azimuth
Unknown
Elevation
Unknown
Doppler factor
Unknown
Orbital elements
Apogee altitude
745.189 km
Perigee altitude
635.29 km
Semi-major axis
7,068.376 km
Eccentricity
0.00777
Inclination
98.4148°
RAAN
38.6472°
Arg. of periapsis
234.0404°
True anomaly
126.07925°
Mean anomaly
125.3568°
Eccentric anomaly
125.71843°
Mean motion
3.65228 °/min
Orbital period
98.57 mins
BSTAR
0.00093348
Loading maneuver chart data...
Computing Atmospheric mass density...

Documentation

Showing up to 5 results
|